"2009-03-20 00:00:00",726098,1.117,7.05,18.14,0.336,14.03,106.5812,16.12,17.1,20.92,0,110.8,13.22,16.93,329.0
"2009-03-20 00:00:30",726099,2.016,342.5,7.321,0.256,13.87,106.5812,16.12,17.11,20.92,0,110.8,13.22,16.93,304.5
"2009-03-20 00:01:00",726100,2.104,340.3,8.4,0.239,13.91,106.5812,16.12,17.1,20.9,0,110.8,13.23,16.93,302.3
"2009-03-20 00:01:30",726101,1.249,350.2,8.91,0.246,14.13,106.5744,16.1,17.11,20.84,0,110.8,13.23,16.91,312.2
"2009-03-20 00:02:00",726102,0.78,14.39,14.91,0.458,14.24,106.5474,16.04,17.09,20.85,0,110.8,13.23,16.84,336.4
"2009-03-20 00:02:30",726103,0.973,2.719,17.75,0.375,14.23,106.5469,16.03,17.07,20.93,0,110.8,13.23,16.84,324.7
"2009-03-20 00:03:00",726104,0.591,11.62,14.18,0.353,14.34,106.5215,15.97,17.06,20.97,0,110.8,13.23,16.78,333.6
"2009-03-20 00:03:30",726105,0.761,350.8,8.17,0.212,14.35,106.5137,15.95,17.03,21,0,110.8,13.22,16.76,312.8
"2009-03-20 00:04:00",726106,0.559,17.32,12,0.336,14.26,106.5131,15.95,17.01,21.07,0,110.8,13.22,16.76,339.3
"2009-03-20 00:04:30",726107,0.944,30.48,13.08,0.477,14.05,106.5089,15.94,16.97,21.12,0,110.8,13.22,16.74,352.5
"2009-03-20 00:05:00",726108,1.224,49.26,11.42,0.259,13.97,106.5128,15.95,16.97,21.15,0,110.8,13.22,16.75,11.3
"2009-03-20 00:05:30",726109,0.729,42.84,16.78,0.227,14.04,106.5143,15.95,16.97,21.15,0,110.8,13.22,16.76,4.8
"2009-03-20 00:06:00",726110,0.898,77.13,6.92,0.112,14.01,106.5146,15.95,16.97,21.16,0,110.8,13.22,16.76,39.1
"2009-03-20 00:06:30",726111,0.579,93,20.03,0.197,13.99,106.5146,15.95,16.96,21.16,0,110.8,13.22,16.76,55.0
"2009-03-20 00:07:00",726112,0.384,42.14,34.01,0.264,14.03,106.5152,15.95,16.98,21.12,0,110.7,13.22,16.76,4.1
"2009-03-20 00:07:30",726113,0.586,6.751,18.12,0.252,14.18,106.5105,15.94,16.97,21.13,0,110.8,13.22,16.75,328.8
"2009-03-20 00:08:00",726114,0.587,7.338,15.91,0.225,14.22,106.4955,15.9,16.97,21.12,0,110.7,13.22,16.71,329.3
"2009-03-20 00:08:30",726115,1.206,16.78,11.96,0.344,13.78,106.4874,15.88,16.96,21.15,0,110.7,13.23,16.69,338.8
"2009-03-20 00:09:00",726116,1.717,28.17,5.404,0.15,13.62,106.4892,15.89,16.95,21.21,0,110.7,13.23,16.69,350.2
"2009-03-20 00:09:30",726117,1.172,21.25,6.853,0.325,13.74,106.4907,15.89,16.94,21.23,0,110.7,13.23,16.70,343.2
"2009-03-20 00:10:00",726118,1.146,26.46,6.049,0.212,13.68,106.4987,15.91,16.94,21.23,0,110.8,13.24,16.72,348.5
"2009-03-20 00:10:30",726119,1.322,31.19,4.592,0.185,13.61,106.4945,15.9,16.94,21.21,0,110.7,13.23,16.71,353.2
"2009-03-20 00:11:00",726120,1.302,36.06,11.09,0.197,13.62,106.5082,15.93,16.93,21.22,0,110.7,13.24,16.74,358.1
"2009-03-20 00:11:30",726121,1.301,37.22,7.237,0.197,13.61,106.5213,15.97,16.94,21.22,0,110.7,13.24,16.78,359.2
"2009-03-20 00:12:00",726122,1.498,44.88,4.375,0.137,13.63,106.5269,15.98,16.95,21.21,0,110.7,13.24,16.79,6.9
"2009-03-20 00:12:30",726123,1.618,46.05,4.369,0.186,13.62,106.5342,16,16.96,21.19,0,110.7,13.24,16.81,8.0
"2009-03-20 00:13:00",726124,1.979,51.14,5.827,0.257,13.7,106.5389,16.01,16.97,21.16,0,110.7,13.24,16.82,13.1
"2009-03-20 00:13:30",726125,2.015,43.6,5.841,0.267,13.79,106.5406,16.02,16.97,21.17,0,110.7,13.24,16.83,5.6
"2009-03-20 00:14:00",726126,1.595,41.49,3.846,0.202,13.78,106.5406,16.02,16.98,21.15,0,110.7,13.24,16.83,3.5
"2009-03-20 00:14:30",726127,1.739,54.9,6.843,0.197,13.83,106.5406,16.02,16.99,21.14,0,110.7,13.24,16.83,16.9
"2009-03-20 00:15:00",726128,1.62,54.56,6.407,0.235,13.83,106.5424,16.02,16.99,21.14,0,110.7,13.24,16.83,16.6
"2009-03-20 00:15:30",726129,1.583,40.22,3.892,0.106,13.79,106.5436,16.03,17,21.13,0,110.7,13.24,16.83,2.2
"2009-03-20 00:16:00",726130,1.928,39.37,6.956,0.458,13.73,106.5463,16.03,17.01,21.13,0,110.7,13.24,16.84,1.4
"2009-03-20 00:16:30",726131,2.31,27.38,11.97,0.434,13.83,106.5472,16.03,17.02,21.19,0,110.7,13.24,16.84,349.4
"2009-03-20 00:17:00",726132,2.734,27.02,2.243,0.161,13.82,106.5478,16.04,17.03,21.17,0,110.7,13.24,16.84,349.0
"2009-03-20 00:17:30",726133,2.226,20.21,4.795,0.358,13.94,106.5478,16.04,17.01,21.2,0,110.7,13.24,16.84,342.2
"2009-03-20 00:18:00",726134,2.431,20.77,3.081,0.263,13.99,106.5481,16.04,17.02,21.19,0,110.7,13.24,16.85,342.8
"2009-03-20 00:18:30",726135,2.284,26.59,7.318,0.369,13.99,106.5496,16.04,17.02,21.19,0,110.7,13.24,16.85,348.6
"2009-03-20 00:19:00",726136,2.21,42.94,5.121,0.215,13.93,106.5493,16.04,17.03,21.17,0,110.7,13.24,16.85,4.9
"2009-03-20 00:19:30",726137,2.158,35.29,6.169,0.283,14.09,106.5493,16.04,17.02,21.17,0,110.7,13.24,16.85,357.3
"2009-03-20 00:20:00",726138,1.623,28.94,5.169,0.187,14.14,106.5496,16.04,17.01,21.15,0,110.7,13.24,16.85,350.9
"2009-03-20 00:20:30",726139,1.294,25.77,3.944,0.101,14.14,106.5496,16.04,17.02,21.14,0,110.7,13.23,16.85,347.8
"2009-03-20 00:21:00",726140,1.388,43.01,3.642,0.127,14.29,106.5482,16.04,17.01,21.11,0,110.7,13.24,16.85,5.0
"2009-03-20 00:21:30",726141,1.285,45.68,6.006,0.076,14.24,106.5401,16.02,17.02,21.11,0,110.7,13.23,16.82,7.7
"2009-03-20 00:22:00",726142,1.653,45.18,8.81,0.205,14.19,106.5344,16,17.02,21.09,0,110.7,13.23,16.81,7.2
"2009-03-20 00:22:30",726143,2.034,42.28,3.788,0.119,14.32,106.5178,15.96,17.02,21.11,0,110.7,13.23,16.77,4.3
"2009-03-20 00:23:00",726144,1.979,45.04,1.559,0.119,14.36,106.5159,15.95,17,21.09,0,110.7,13.23,16.76,7.0
"2009-03-20 00:23:30",726145,1.864,46.19,3.227,0.126,14.38,106.5159,15.95,16.99,21.1,0,110.7,13.23,16.76,8.2
"2009-03-20 00:24:00",726146,2.182,51.81,2.686,0.104,14.38,106.5108,15.94,16.97,21.09,0,110.7,13.23,16.75,13.8
"2009-03-20 00:24:30",726147,2.046,48.95,2.32,0.1,14.46,106.4869,15.88,16.97,21.09,0,110.7,13.23,16.69,11.0
"2009-03-20 00:25:00",726148,1.862,48.54,1.855,0.064,14.57,106.4821,15.87,16.93,21.11,0,110.7,13.24,16.68,10.5
"2009-03-20 00:25:30",726149,1.754,49.38,2.009,0.07,14.61,106.4821,15.87,16.93,21.12,0,110.7,13.24,16.68,11.4
"2009-03-20 00:26:00",726150,1.706,54.51,5.187,0.115,14.61,106.4672,15.83,16.92,21.14,0,110.7,13.24,16.64,16.5
"2009-03-20 00:26:30",726151,1.937,44.46,3.959,0.182,14.62,106.4489,15.78,16.89,21.22,0,110.7,13.24,16.59,6.5
"2009-03-20 00:27:00",726152,1.608,31.45,5.633,0.213,14.61,106.4467,15.78,16.88,21.29,0,110.7,13.24,16.58,353.5
"2009-03-20 00:27:30",726153,1.438,24.81,5.23,0.159,14.67,106.4258,15.72,16.84,21.35,0,110.7,13.24,16.53,346.8
"2009-03-20 00:28:00",726154,1.552,30.85,4.774,0.166,14.62,106.4146,15.69,16.83,21.4,0,110.7,13.24,16.50,352.9
"2009-03-20 00:28:30",726155,1.347,28.23,7.69,0.175,14.69,106.412,15.69,16.82,21.5,0,110.7,13.24,16.50,350.2
"2009-03-20 00:29:00",726156,1.408,33.63,2.657,0.225,14.76,106.389,15.63,16.78,21.52,0,110.7,13.25,16.44,355.6
"2009-03-20 00:29:30",726157,1.843,39.57,3.208,0.199,14.71,106.3853,15.62,16.74,21.51,0,110.7,13.25,16.43,1.6
"2009-03-20 00:30:00",726158,1.578,38.34,5.654,0.124,14.79,106.3795,15.61,16.72,21.51,0,110.7,13.25,16.41,0.3
"2009-03-20 00:30:30",726159,1.616,43.24,4.757,0.154,14.74,106.3569,15.55,16.68,21.55,0,110.7,13.25,16.35,5.2
"2009-03-20 00:31:00",726160,1.224,30.01,5.201,0.234,14.79,106.3588,15.55,16.67,21.64,0,110.7,13.25,16.36,352.0
"2009-03-20 00:31:30",726161,1.491,36.24,9.94,0.19,14.79,106.3353,15.49,16.64,21.69,0,110.7,13.25,16.30,358.2
"2009-03-20 00:32:00",726162,1.47,45.12,2.91,0.054,14.81,106.3327,15.49,16.61,21.69,0,110.7,13.25,16.29,7.1
"2009-03-20 00:32:30",726163,1.501,39.49,1.594,0.092,14.99,106.3192,15.45,16.57,21.7,0,110.7,13.25,16.26,1.5
"2009-03-20 00:33:00",726164,1.481,47.7,3.331,0.04,14.86,106.3088,15.42,16.55,21.75,0,110.7,13.25,16.23,9.7
"2009-03-20 00:33:30",726165,1.556,44.59,4.429,0.115,14.89,106.3054,15.42,16.53,21.74,0,110.7,13.25,16.22,6.6
"2009-03-20 00:34:00",726166,1.454,38.45,3.084,0.114,14.93,106.2801,15.35,16.48,21.81,0,110.7,13.25,16.16,0.5
"2009-03-20 00:34:30",726167,1.352,32.53,3.257,0.241,14.9,106.2752,15.34,16.46,21.88,0,110.7,13.25,16.14,354.5
"2009-03-20 00:35:00",726168,1.561,29.44,9.53,0.227,14.88,106.2484,15.27,16.42,21.91,0,110.7,13.25,16.07,351.4
"2009-03-20 00:35:30",726169,1.311,22.63,2.869,0.134,14.94,106.2459,15.26,16.39,21.97,0,110.7,13.25,16.07,344.6
"2009-03-20 00:36:00",726170,1.379,20.19,5,0.188,14.94,106.2183,15.19,16.36,22.03,0,110.6,13.25,16.00,342.2
"2009-03-20 00:36:30",726171,1.411,21.44,4.219,0.174,14.92,106.2141,15.18,16.33,22.09,0,110.7,13.26,15.99,343.4
"2009-03-20 00:37:00",726172,1.459,21.77,2.868,0.096,14.94,106.1936,15.13,16.29,22.12,0,110.7,13.25,15.93,343.8
"2009-03-20 00:37:30",726173,1.386,21.78,2.456,0.115,14.99,106.1803,15.09,16.26,22.16,0,110.6,13.25,15.90,343.8
"2009-03-20 00:38:00",726174,1.061,26.81,3.449,0.132,15.03,106.177,15.09,16.21,22.2,0,110.6,13.25,15.89,348.8
"2009-03-20 00:38:30",726175,2.263,32.35,8.39,1.356,16.41,106.1497,15.02,16.2,22.26,0,110.6,13.22,15.82,354.4
"2009-03-20 00:39:00",726176,2.245,37.29,6.753,1.348,16.89,106.1466,15.01,16.32,22.45,0,110.6,13.22,15.81,359.3
"2009-03-20 00:39:30",726177,1.641,33.01,2.733,0.687,14.83,106.1235,14.95,16.12,22.36,0,110.6,13.22,15.75,355.0
"2009-03-20 00:40:00",726178,1.357,29.92,4.724,0.184,14.36,106.11,14.91,16.11,22.4,0,110.6,13.26,15.72,351.9
"2009-03-20 00:40:30",726179,2.614,28.31,5.656,1.463,16.2,106.0832,14.85,16.18,22.58,0,110.6,13.22,15.65,350.3
"2009-03-20 00:41:00",726180,2,30.26,6.06,1.05,15.24,106.0829,14.85,16.17,22.71,0,110.6,13.22,15.65,352.3
"2009-03-20 00:41:30",726181,1.824,28.95,6.514,0.946,14.43,106.0699,14.81,16,22.59,0,110.6,13.22,15.62,351.0
"2009-03-20 00:42:00",726182,1.765,33.18,2.309,0.172,13.75,106.0611,14.79,15.95,22.65,0,110.6,13.26,15.59,355.2
"2009-03-20 00:42:30",726183,1.445,25.48,2.961,0.196,13.77,106.0486,14.76,15.9,22.68,0,110.6,13.26,15.56,347.5
"2009-03-20 00:43:00",726184,1.661,32.23,4.65,0.509,14.36,106.0372,14.73,16.03,22.89,0,110.6,13.27,15.53,354.2
"2009-03-20 00:43:30",726185,2.625,32.14,11.09,1.409,15.58,106.0212,14.69,15.88,22.79,0,110.6,13.23,15.49,354.1
"2009-03-20 00:44:00",726186,1.616,27.31,7.015,0.156,13.58,106.0123,14.66,15.82,22.83,0,110.6,13.27,15.47,349.3
"2009-03-20 00:44:30",726187,1.484,35.71,2.145,0.139,13.28,105.9946,14.62,15.75,22.9,0,110.6,13.27,15.42,357.7
"2009-03-20 00:45:00",726188,1.25,31.86,1.934,0.075,13.13,105.9797,14.58,15.73,22.95,0,110.6,13.27,15.38,353.9
"2009-03-20 00:45:30",726189,2.203,30.17,5.556,1.202,14.3,105.9657,14.54,15.7,22.99,0,110.6,13.23,15.35,352.2
"2009-03-20 00:46:00",726190,1.625,27.36,7.962,0.688,14.21,105.9459,14.49,15.82,23.22,0,110.5,13.24,15.30,349.4
"2009-03-20 00:46:30",726191,2.526,31.52,5.953,1.348,14.97,105.9417,14.48,15.63,23.1,0,110.6,13.23,15.29,353.5
"2009-03-20 00:47:00",726192,1.399,22.75,2.379,0.114,13.25,105.9153,14.42,15.57,23.14,0,110.6,13.27,15.22,344.8
"2009-03-20 00:47:30",726193,1.362,25.56,3.585,0.134,13.24,105.9119,14.41,15.56,23.19,0,110.6,13.27,15.21,347.6
"2009-03-20 00:48:00",726194,1.41,30.31,2.501,0.187,13.35,105.8936,14.36,15.54,23.25,0,110.5,13.28,15.16,352.3
"2009-03-20 00:48:30",726195,1.813,30.45,2.737,0.222,13.64,105.8784,14.32,15.49,23.31,0,110.5,13.28,15.12,352.5
"2009-03-20 00:49:00",726196,1.825,34.32,2.317,0.163,13.73,105.8654,14.29,15.44,23.36,0,110.5,13.28,15.09,356.3
"2009-03-20 00:49:30",726197,1.883,32.08,5.712,0.732,14.11,105.8446,14.23,15.51,23.49,0,110.5,13.24,15.04,354.1
"2009-03-20 00:50:00",726198,2.89,32.23,6.308,1.488,16.05,105.8421,14.23,15.47,23.51,0,110.5,13.24,15.03,354.2
"2009-03-20 00:50:30",726199,1.627,24.36,2.179,0.128,13.77,105.8148,14.16,15.36,23.49,0,110.5,13.28,14.96,346.4
"2009-03-20 00:51:00",726200,1.645,23.26,2.274,0.156,13.73,105.8123,14.15,15.33,23.55,0,110.5,13.28,14.95,345.3
"2009-03-20 00:51:30",726201,2.695,26.95,7.516,1.351,15.63,105.8054,14.13,15.36,23.64,0,110.5,13.25,14.94,349.0
"2009-03-20 00:52:00",726202,2.175,28.34,9.05,1.131,15.21,105.7887,14.09,15.42,23.78,0,110.5,13.25,14.89,350.3
"2009-03-20 00:52:30",726203,1.94,30.45,5.746,1.034,14.31,105.7916,14.1,15.24,23.7,0,110.5,13.25,14.90,352.5
"2009-03-20 00:53:00",726204,1.549,27.2,3.078,0.189,13.48,105.787,14.09,15.21,23.74,0,110.5,13.28,14.89,349.2
"2009-03-20 00:53:30",726205,1.457,28.72,2.236,0.193,13.52,105.7706,14.05,15.19,23.79,0,110.5,13.28,14.85,350.7
"2009-03-20 00:54:00",726206,1.43,26.6,2.488,0.163,13.65,105.7757,14.06,15.17,23.83,0,110.5,13.28,14.86,348.6
"2009-03-20 00:54:30",726207,1.539,20.9,5.011,0.186,13.77,105.7617,14.02,15.13,23.87,0,110.5,13.28,14.82,342.9
"2009-03-20 00:55:00",726208,1.886,20.43,6.273,0.99,14.94,105.7452,13.98,15.27,24.1,0,110.5,13.25,14.78,342.4
"2009-03-20 00:55:30",726209,2.137,21.2,7.179,1.146,14.94,105.7452,13.98,15.11,24.01,0,110.5,13.25,14.78,343.2
"2009-03-20 00:56:00",726210,1.415,19.12,3.747,0.27,13.77,105.7379,13.96,15.08,24.04,0,110.5,13.28,14.76,341.1
"2009-03-20 00:56:30",726211,1.527,24.19,4.278,0.135,13.35,105.7145,13.9,15.03,24.04,0,110.5,13.28,14.70,346.2
"2009-03-20 00:57:00",726212,1.615,21.87,3.287,0.171,13.33,105.7114,13.89,15.01,24.08,0,110.5,13.28,14.69,343.9
"2009-03-20 00:57:30",726213,2.225,24.44,4.55,1.062,15.08,105.7108,13.89,15.15,24.27,0,110.5,13.25,14.69,346.4
"2009-03-20 00:58:00",726214,2.031,21.18,4.908,0.97,14.09,105.697,13.86,15.04,24.24,0,110.5,13.25,14.66,343.2
"2009-03-20 00:58:30",726215,1.71,19.86,3.701,0.169,13.77,105.6776,13.81,14.99,24.24,0,110.5,13.28,14.61,341.9
"2009-03-20 00:59:00",726216,2.89,25.15,7.58,1.307,15.3,105.6776,13.81,15.09,24.41,0,110.5,13.25,14.61,347.1
"2009-03-20 00:59:30",726217,1.627,23.21,2.033,0.177,13.12,105.6759,13.8,14.96,24.41,0,110.5,13.29,14.60,345.2
"2009-03-20 01:00:00",726218,1.615,24.04,1.696,0.132,12.97,105.6531,13.74,14.88,24.36,0,110.4,13.29,14.54,346.0
"2009-03-20 01:00:30",726219,1.501,25.26,4.356,0.123,13.03,105.6438,13.72,14.85,24.37,0,110.4,13.29,14.52,347.3
"2009-03-20 01:01:00",726220,1.542,26.68,2.636,0.16,13.22,105.6418,13.72,14.88,24.49,0,110.4,13.29,14.52,348.7
"2009-03-20 01:01:30",726221,2.665,33.69,8.28,1.256,15.17,105.6173,13.65,14.92,24.56,0,110.4,13.26,14.45,355.7
"2009-03-20 01:02:00",726222,1.618,23.41,4.69,0.161,13.34,105.6115,13.64,14.87,24.62,0,110.4,13.29,14.44,345.4
"2009-03-20 01:02:30",726223,1.63,18.24,3.287,0.131,13.08,105.6142,13.64,14.76,24.69,0,110.4,13.29,14.44,340.2
"2009-03-20 01:03:00",726224,1.374,21.22,4.28,0.155,13.13,105.6012,13.61,14.74,24.8,0,110.4,13.29,14.41,343.2
"2009-03-20 01:03:30",726225,1.275,17.76,4.535,0.196,13.3,105.5928,13.59,14.72,24.88,0,110.4,13.3,14.39,339.8
"2009-03-20 01:04:00",726226,1.337,21.73,1.955,0.081,13.46,105.5994,13.61,14.69,24.99,0,110.4,13.3,14.41,343.7
"2009-03-20 01:04:30",726227,1.264,22.68,3.053,0.156,13.63,105.6047,13.62,14.66,25.05,0,110.4,13.3,14.42,344.7
"2009-03-20 01:05:00",726228,2.59,27.84,7.304,1.398,15.91,105.6138,13.64,14.75,25.25,0,110.4,13.26,14.44,349.8
"2009-03-20 01:05:30",726229,1.421,18.87,18.25,1.347,14.9,105.6161,13.65,14.82,25.48,0,110.4,13.27,14.45,340.9
"2009-03-20 01:06:00",726230,0.981,23.26,48.61,0.74,13.13,105.6122,13.64,14.64,25.55,0,110.4,13.3,14.44,345.3
"2009-03-20 01:06:30",726231,0.809,13.76,58.78,1.168,13.42,105.6119,13.64,14.61,25.54,0,110.4,13.27,14.44,335.8
"2009-03-20 01:07:00",726232,2.27,276.3,35.54,1.487,15.79,105.6063,13.62,14.74,25.69,0,110.4,13.27,14.42,238.3
"2009-03-20 01:07:30",726233,1.684,44.53,13.86,1.075,14.62,105.5922,13.59,14.75,25.78,0,110.4,13.27,14.39,6.5
"2009-03-20 01:08:00",726234,0.816,63.34,46.92,0.284,12.48,105.5781,13.55,14.6,25.7,0,110.4,13.3,14.35,25.3
"2009-03-20 01:08:30",726235,0.764,21.65,97.5,0.481,12.15,105.5781,13.55,14.55,25.68,0,110.4,13.31,14.35,343.6
"2009-03-20 01:09:00",726236,1.785,189.4,7.447,0.16,12.26,105.5727,13.54,14.54,25.61,0,110.4,13.31,14.34,151.4
"2009-03-20 01:09:30",726237,2.439,177.8,16,1.512,13.92,105.5457,13.47,14.58,25.65,0,110.4,13.27,14.27,139.8
"2009-03-20 01:10:00",726238,2.775,193.2,7.311,1.357,14.5,105.5443,13.47,14.66,25.8,0,110.4,13.27,14.26,155.2
"2009-03-20 01:10:30",726239,2.04,184,14.98,0.327,12.37,105.5313,13.43,14.5,25.64,0,110.4,13.3,14.23,146.0
"2009-03-20 01:11:00",726240,2.298,201.2,13.29,0.507,12.54,105.5113,13.38,14.47,25.68,0,110.4,13.3,14.18,163.2
"2009-03-20 01:11:30",726241,4.454,189.9,9.53,0.585,12.61,105.5105,13.38,14.44,26.32,0,110.4,13.3,14.18,151.9
"2009-03-20 01:12:00",726242,3.515,207.8,11.32,0.791,12.71,105.4927,13.33,14.45,26.84,0,110.4,13.3,14.13,169.8
"2009-03-20 01:12:30",726243,3.19,205,13.84,1.7,14.22,105.477,13.29,14.42,26.88,0,110.4,13.27,14.09,167.0
"2009-03-20 01:13:00",726244,4.994,208.7,10.85,0.871,13.92,105.4788,13.3,14.51,27.06,0,110.4,13.27,14.10,170.7
"2009-03-20 01:13:30",726245,5.97,209.2,5.665,1.267,15.65,105.4823,13.31,14.46,27.14,0,110.4,13.27,14.11,171.2
"2009-03-20 01:14:00",726246,6.374,211.2,7.349,1.689,14.94,105.485,13.31,14.56,27.28,0,110.4,13.27,14.11,173.2
"2009-03-20 01:14:30",726247,6.4,215.8,9.51,1.218,15.5,105.4897,13.33,14.5,27.23,0,110.4,13.27,14.12,177.8
"2009-03-20 01:15:00",726248,4.731,208,4.39,0.945,13.05,105.4918,13.33,14.36,26.74,0,110.4,13.27,14.13,170.0
"2009-03-20 01:15:30",726249,6.059,217.5,5.548,1.462,14.71,105.4973,13.35,14.39,26.91,0,110.4,13.27,14.14,179.5
"2009-03-20 01:16:00",726250,4.433,210.1,4.839,0.176,12.55,105.4941,13.34,14.35,26.75,0,110.4,13.31,14.14,172.1
"2009-03-20 01:16:30",726251,4.298,208.1,5.79,0.202,12.55,105.4922,13.33,14.29,26.5,0,110.4,13.31,14.13,170.1
"2009-03-20 01:17:00",726252,4.578,226.2,3.426,0.309,12.69,105.4793,13.3,14.3,26.55,0,110.4,13.32,14.10,188.2
"2009-03-20 01:17:30",726253,4.609,226.8,7.659,0.421,13.03,105.4782,13.3,14.3,26.51,0,110.4,13.32,14.10,188.8
"2009-03-20 01:18:00",726254,4.457,218.4,2.579,0.191,13.35,105.4785,13.3,14.29,26.53,0,110.4,13.32,14.10,180.4
"2009-03-20 01:18:30",726255,4.277,225,3.819,0.368,14.08,105.4785,13.3,14.42,26.84,0,110.4,13.32,14.10,187.0
"2009-03-20 01:19:00",726256,6.414,230.3,7.827,1.12,17.65,105.4785,13.3,14.55,26.87,0,110.4,13.28,14.10,192.3
"2009-03-20 01:19:30",726257,4.627,216.5,8.6,1.364,15.77,105.4785,13.3,14.45,26.71,0,110.3,13.28,14.10,178.5
"2009-03-20 01:20:00",726258,3.992,199.9,6.465,0.226,13.17,105.4785,13.3,14.26,26.55,0,110.4,13.32,14.10,161.9
"2009-03-20 01:20:30",726259,4.565,179.6,7.015,0.733,14.07,105.4785,13.3,14.43,26.68,0,110.4,13.28,14.10,141.6
"2009-03-20 01:21:00",726260,5.404,182.2,10.04,1.377,16.6,105.4785,13.3,14.53,26.77,0,110.4,13.28,14.10,144.2
"2009-03-20 01:21:30",726261,3.62,191.8,10.85,0.759,13.72,105.4785,13.3,14.44,26.64,0,110.4,13.29,14.10,153.8
"2009-03-20 01:22:00",726262,2.516,196.9,5.171,0.268,12.25,105.4785,13.3,14.29,26.42,0,110.4,13.32,14.10,158.9
"2009-03-20 01:22:30",726263,2.28,181.9,4.226,0.207,12.19,105.4785,13.3,14.28,26.4,0,110.4,13.32,14.10,143.9
"2009-03-20 01:23:00",726264,3.509,188.9,6.365,1.021,12.15,105.4785,13.3,14.27,26.46,0,110.4,13.32,14.10,150.9
"2009-03-20 01:23:30",726265,5.309,195.2,1.76,0.146,12.05,105.4785,13.3,14.27,27.68,0,110.4,13.32,14.10,157.2
"2009-03-20 01:24:00",726266,5.318,199.2,2.532,0.194,12.53,105.4785,13.3,14.38,28.25,0,110.4,13.33,14.10,161.2
"2009-03-20 01:24:30",726267,7.215,205.7,7.626,1.255,15.01,105.4723,13.28,14.4,28.47,0,110.4,13.29,14.08,167.7
"2009-03-20 01:25:00",726268,7.504,209,7.059,1.305,15.96,105.4602,13.25,14.54,28.66,0,110.3,13.29,14.05,171.0
"2009-03-20 01:25:30",726269,7.531,206.9,7.651,1.4,16.03,105.4453,13.21,14.42,28.57,0,110.3,13.29,14.01,168.9
"2009-03-20 01:26:00",726270,7.448,204.7,6.268,1.298,15.85,105.4453,13.21,14.53,28.77,0,110.3,13.29,14.01,166.7
"2009-03-20 01:26:30",726271,6.75,197.7,6.379,0.953,13.83,105.4462,13.21,14.46,28.74,0,110.3,13.29,14.01,159.7
"2009-03-20 01:27:00",726272,6.554,196.1,5.8,0.902,12.62,105.4447,13.21,14.29,28.6,0,110.3,13.29,14.01,158.1
"2009-03-20 01:27:30",726273,6.562,191.4,1.812,0.202,11.7,105.435,13.19,14.24,28.56,0,110.3,13.32,13.98,153.4
"2009-03-20 01:28:00",726274,6.884,191.4,0.864,0.135,11.97,105.4195,13.15,14.22,28.59,0,110.3,13.32,13.94,153.4
"2009-03-20 01:28:30",726275,7.805,196.3,5.855,1.293,14.51,105.4234,13.16,14.29,28.72,0,110.3,13.28,13.95,158.3
"2009-03-20 01:29:00",726276,7.062,198.2,7.69,1.163,14.21,105.4287,13.17,14.34,28.84,0,110.3,13.28,13.97,160.2
"2009-03-20 01:29:30",726277,7.958,202.8,7.526,1.485,15.65,105.4206,13.15,14.37,28.93,0,110.4,13.28,13.95,164.8
"2009-03-20 01:30:00",726278,8.64,204.6,6.397,1.363,15.85,105.4019,13.1,14.41,28.98,0,110.3,13.28,13.90,166.6
"2009-03-20 01:30:30",726279,8.98,201.1,6.618,1.262,14.27,105.405,13.11,14.18,28.79,0,110.3,13.28,13.91,163.1
"2009-03-20 01:31:00",726280,8.57,198.9,6.874,1.243,13.84,105.4056,13.11,14.29,28.92,0,110.3,13.28,13.91,160.9
"2009-03-20 01:31:30",726281,8.77,196.8,5.035,0.925,12.68,105.3941,13.08,14.11,28.69,0,110.3,13.28,13.88,158.8
"2009-03-20 01:32:00",726282,8.12,196.1,1.089,0.067,11.98,105.3738,13.03,14.07,28.64,0,110.3,13.32,13.83,158.1
"2009-03-20 01:32:30",726283,8.34,202.2,6.716,1.087,13.79,105.3765,13.04,14.2,28.84,0,110.3,13.29,13.83,164.2
"2009-03-20 01:33:00",726284,8.27,201.3,5.332,0.989,13.4,105.3743,13.03,14.14,28.87,0,110.3,13.29,13.83,163.3
"2009-03-20 01:33:30",726285,9.33,206.5,6.918,1.299,15.47,105.3487,12.97,14.27,29.07,0,110.3,13.29,13.76,168.5
"2009-03-20 01:34:00",726286,9.55,208,6.277,1.36,15.64,105.3451,12.96,14.21,29.11,0,110.3,13.29,13.75,170.0
"2009-03-20 01:34:30",726287,7.942,198.8,0.977,0.106,12.11,105.3451,12.96,13.97,28.97,0,110.3,13.33,13.75,160.8
"2009-03-20 01:35:00",726288,8.9,204.7,5.739,1.354,14.36,105.3329,12.92,14.12,29.14,0,110.3,13.29,13.72,166.7
"2009-03-20 01:35:30",726289,7.816,199.1,2.28,0.766,12.29,105.3112,12.87,14.04,29.09,0,110.3,13.29,13.67,161.1
"2009-03-20 01:36:00",726290,7.55,200.7,2.783,0.278,12.71,105.3112,12.87,13.96,29.02,0,110.3,13.33,13.67,162.7
"2009-03-20 01:36:30",726291,7.942,201.4,5.168,0.901,12.94,105.307,12.86,14.03,29.11,0,110.3,13.29,13.66,163.4
"2009-03-20 01:37:00",726292,9.2,208.3,6.62,1.275,15.55,105.2816,12.79,13.96,29.1,0,110.3,13.29,13.59,170.3
"2009-03-20 01:37:30",726293,8.65,206.2,6.381,1.292,14.43,105.2774,12.78,13.99,29.19,0,110.3,13.3,13.58,168.2
"2009-03-20 01:38:00",726294,9.24,208.1,6.96,1.264,15.09,105.2774,12.78,13.94,29.18,0,110.3,13.3,13.58,170.1
"2009-03-20 01:38:30",726295,7.194,201.6,0.622,0.11,12.11,105.2751,12.78,13.81,29.1,0,110.3,13.33,13.57,163.6
"2009-03-20 01:39:00",726296,7.142,201.1,1.294,0.234,11.96,105.2554,12.73,13.79,29.13,0,110.3,13.3,13.52,163.1
"2009-03-20 01:39:30",726297,7.948,206.3,6.455,1.103,14.29,105.2436,12.7,13.96,29.3,0,110.3,13.3,13.49,168.3
"2009-03-20 01:40:00",726298,7.143,203.9,3.959,0.952,12.8,105.2436,12.7,13.74,29.15,0,110.3,13.3,13.49,165.9
"2009-03-20 01:40:30",726299,7.796,206.1,7.092,1.232,14.29,105.2436,12.7,13.89,29.33,0,110.3,13.3,13.49,168.1
"2009-03-20 01:41:00",726300,7.468,209,7.32,1.213,14.77,105.2416,12.69,13.86,29.33,0,110.3,13.3,13.49,171.0
"2009-03-20 01:41:30",726301,7.863,207.2,6.879,1.535,14.21,105.2329,12.67,13.84,29.38,0,110.3,13.3,13.46,169.2
"2009-03-20 01:42:00",726302,8.3,207.4,6.669,1.37,14.25,105.2157,12.62,13.83,29.44,0,110.3,13.3,13.42,169.4
"2009-03-20 01:42:30",726303,6.966,202.6,2.675,0.073,12.45,105.2097,12.61,13.8,29.49,0,110.3,13.3,13.41,164.6
"2009-03-20 01:43:00",726304,7.023,204.7,3.642,0.755,12.46,105.2097,12.61,13.7,29.41,0,110.3,13.3,13.41,166.7
"2009-03-20 01:43:30",726305,7.098,205.1,1.863,0.248,12.12,105.2097,12.61,13.65,29.45,0,110.3,13.34,13.41,167.1
"2009-03-20 01:44:00",726306,8.5,210.5,6.295,1.326,14.77,105.2103,12.61,13.82,29.67,0,110.3,13.3,13.41,172.5
"2009-03-20 01:44:30",726307,7.93,208.9,6.374,1.456,13.98,105.2097,12.61,13.76,29.68,0,110.3,13.3,13.41,170.9
"2009-03-20 01:45:00",726308,8.78,213.7,7.345,1.413,15.01,105.2083,12.61,13.88,29.83,0,110.3,13.3,13.40,175.7
"2009-03-20 01:45:30",726309,7.899,210.8,5.365,1.018,13.28,105.1991,12.58,13.77,29.74,0,110.3,13.3,13.38,172.8
"2009-03-20 01:46:00",726310,8.76,214.7,7.573,1.221,13.31,105.1885,12.55,13.64,29.64,0,110.3,13.3,13.35,176.7
"2009-03-20 01:46:30",726311,7.494,209.4,4.624,0.483,12.63,105.1844,12.54,13.76,29.78,0,110.3,13.33,13.34,171.4
"2009-03-20 01:47:00",726312,7.676,216.7,5.827,1.533,14.11,105.1854,12.55,13.65,29.59,0,110.3,13.3,13.34,178.7
"2009-03-20 01:47:30",726313,6.62,213.5,1.727,0.164,12.43,105.1857,12.55,13.59,29.55,0,110.3,13.33,13.34,175.5
"2009-03-20 01:48:00",726314,7.612,217.6,6.664,1.015,14.89,105.1866,12.55,13.7,29.7,0,110.3,13.3,13.35,179.6